Location: Cincinnati Observatory Center
(39.1389°N, 84.4225°W)
Time: 21:25:35
(UTC-05:00)

Amateur Radio Satellites - All Passes

Search period start: 20 January 2018 20:55
Search period end: 21 January 2018 20:55
Location: Cincinnati Observatory Center, 39.1389°N, 84.4225°W

Satellite Date Start Highest point End Downlink Frequencies (MHz)
Time Altitude Azimuth
STRAND 1 20 Jan 20:58:09 21:02:49 36° 291° (WNW) 21:07:29 437.568
ISS 20 Jan 21:03:20 21:06:32 59° 138° (SE) 21:09:45 437.550
ZACube-1 20 Jan 21:08:35 21:11:13 15° 269° (W) 21:13:55 437.345
AO-85 20 Jan 21:14:20 21:19:17 64° 57° (ENE) 21:24:31 145.980
AO-73 20 Jan 21:15:38 21:18:10 15° 269° (W) 21:20:43 145.935
Max Valier Satellite 20 Jan 21:19:20 21:22:54 46° 74° (ENE) 21:26:30 145.860
TIGRISAT 20 Jan 21:27:48 21:31:08 19° 93° (E) 21:34:25 435.000
FO-29 20 Jan 21:30:36 21:35:33 46° 289° (WNW) 21:40:32 435.910
EO-88 20 Jan 21:38:37 21:42:10 51° 75° (ENE) 21:45:44 145.990 - 145.960
UNISAT 6 20 Jan 21:42:25 21:46:32 29° 96° (E) 21:50:37 437.425
DELFI C3 20 Jan 22:12:27 22:15:37 23° 265° (W) 22:18:48 145.870
ESTCUBE 1 20 Jan 22:24:11 22:27:37 22° 67° (ENE) 22:31:03 437.505/2401.250
nSIGHT-1 20 Jan 22:28:29 22:30:45 18° 337° (NNW) 22:33:02 .
ISS 20 Jan 22:40:44 22:43:14 20° 336° (NNW) 22:45:46 437.550
YUBILEINY 20 Jan 22:48:10 22:56:09 40° 86° (E) 23:04:06 435.215
AO-85 20 Jan 22:56:07 22:59:18 17° 251° (WSW) 23:02:34 145.980
Max Valier Satellite 20 Jan 22:56:11 22:56:57 10° 269° (W) 22:57:43 145.860
LO-87 20 Jan 22:58:23 23:01:53 60° 76° (ENE) 23:05:26 145.935 - 145.965
TIGRISAT 20 Jan 23:03:31 23:07:56 41° 288° (WNW) 23:12:20 435.000
UNISAT 6 20 Jan 23:19:10 23:23:05 27° 291° (WNW) 23:27:00 437.425
NO-84 20 Jan 23:24:11 23:25:27 12° 29° (NNE) 23:26:45 435.350 FM
PRISM 20 Jan 23:32:45 23:36:51 80° 284° (WNW) 23:40:55 437.425
POLYITAN 1 20 Jan 23:43:15 23:46:07 17° 93° (E) 23:48:57 437.675
SPROUT 20 Jan 23:57:28 00:01:33 49° 74° (ENE) 00:05:41 437.525
NANOSAT C BR1 20 Jan 23:58:32 00:01:55 22° 95° (E) 00:05:16 145.865
ESTCUBE 1 21 Jan 00:00:03 00:04:10 34° 263° (W) 00:08:19 437.505/2401.250
VELOX 1 21 Jan 00:00:09 00:03:56 29° 69° (ENE) 00:07:43 145.980
AIST 2D 21 Jan 00:09:15 00:12:38 50° 284° (WNW) 00:15:58 435.315
QB50P2 21 Jan 00:11:58 00:16:03 41° 99° (E) 00:20:05 145.880/145.840
O/OREOS (USA 219) 21 Jan 00:19:01 00:22:58 31° 104° (ESE) 00:26:56 437.305
DUCHIFAT 1 21 Jan 00:41:38 00:45:52 61° 100° (E) 00:50:04 145.980
EO-79 21 Jan 00:42:45 00:47:03 86° 100° (E) 00:51:19 145.935-145.965
YUBILEINY 21 Jan 00:44:32 00:52:48 43° 285° (WNW) 01:01:05 435.215
Oscar 19 21 Jan 00:58:01 01:00:28 13° 91° (E) 01:02:53 437.125/150
NO-84 21 Jan 01:00:01 01:02:53 66° 225° (SW) 01:05:52 435.350 FM
AO-91 21 Jan 01:09:25 01:12:51 20° 95° (E) 01:16:30 145.960
POLYITAN 1 21 Jan 01:18:01 01:21:59 37° 288° (WNW) 01:25:56 437.675
NANOSAT C BR1 21 Jan 01:33:54 01:37:35 29° 290° (WNW) 01:41:14 145.865
SPROUT 21 Jan 01:35:43 01:37:42 13° 269° (W) 01:39:41 437.525
VELOX 1 21 Jan 01:36:49 01:40:20 23° 265° (W) 01:43:52 145.980
UKube-1 21 Jan 01:40:21 01:44:23 41° 72° (ENE) 01:48:26 .
BUGSAT 1 21 Jan 01:43:06 01:47:21 67° 102° (ESE) 01:51:33 437.445
nSIGHT-1 21 Jan 01:43:37 01:45:16 13° 17° (NNE) 01:46:54 .
QB50P2 21 Jan 01:48:45 01:51:28 17° 294° (WNW) 01:54:09 145.880/145.840
DX 1 21 Jan 01:51:53 01:56:12 84° 255° (WSW) 02:00:32 434.975-435.025
MOZHAYETS 4 21 Jan 01:53:48 01:56:48 17° 65° (ENE) 01:59:50
ISS 21 Jan 01:56:41 01:58:23 13° 16° (NNE) 02:00:05 437.550
O/OREOS (USA 219) 21 Jan 01:58:43 02:02:23 24° 300° (WNW) 02:06:02 437.305
BEESAT 21 Jan 02:03:19 02:05:36 13° 62° (ENE) 02:07:52 436.000
50 SAT 21 Jan 02:04:32 02:07:31 49° 260° (W) 02:10:32 437.505
DUCHIFAT 1 21 Jan 02:19:28 02:20:58 12° 297° (WNW) 02:22:28 145.980
Gurwin Techsat 1B 21 Jan 02:20:56 02:26:14 67° 102° (ESE) 02:31:31 435.225
Oscar 19 21 Jan 02:35:05 02:40:14 67° 286° (WNW) 02:45:19 437.125/150
AO-91 21 Jan 02:45:07 02:49:18 39° 287° (WNW) 02:53:53 145.960
ITUPSAT 1 21 Jan 02:58:34 03:03:08 47° 71° (ENE) 03:07:43 437.325
UKube-1 21 Jan 03:17:57 03:20:33 16° 267° (W) 03:23:10 .
nSIGHT-1 21 Jan 03:18:49 03:21:58 58° 36° (NE) 03:25:06 .
BUGSAT 1 21 Jan 03:21:02 03:22:05 11° 297° (WNW) 03:23:08 437.445
AO-7 21 Jan 03:24:51 03:32:27 37° 98° (E) 03:39:57 .
MOZHAYETS 4 21 Jan 03:29:07 03:33:34 46° 261° (W) 03:38:02
ISS 21 Jan 03:32:14 03:35:27 53° 35° (NE) 03:38:40 437.550
CUBESAT XI-V 21 Jan 03:32:17 03:36:45 45° 72° (ENE) 03:41:13 437.345
BEESAT 21 Jan 03:38:02 03:42:46 66° 258° (WSW) 03:47:32 436.000
ITAMSAT 1 21 Jan 03:41:53 03:46:10 25° 95° (E) 03:50:27 435.822/435.867
Gurwin Techsat 1B 21 Jan 04:02:29 04:05:36 16° 298° (WNW) 04:08:41 435.225
ITUPSAT 1 21 Jan 04:38:04 04:41:10 17° 267° (W) 04:44:17 437.325
SO-50 21 Jan 04:43:53 04:46:41 16° 109° (ESE) 04:49:29 436.795
FALCONSAT 3 21 Jan 04:46:04 04:49:17 29° 164° (SSE) 04:52:31 435.103
nSIGHT-1 21 Jan 04:56:15 04:57:46 13° 231° (SW) 04:59:18 .
KKS-1 21 Jan 04:57:09 05:01:27 54° 73° (ENE) 05:05:46 437.445
ISS 21 Jan 05:09:40 05:11:37 15° 230° (SW) 05:13:34 437.550
CUBESAT XI-V 21 Jan 05:11:14 05:14:17 17° 268° (W) 05:17:22 437.345
STARS 21 Jan 05:13:11 05:16:59 30° 69° (ENE) 05:20:48 437.465
AO-7 21 Jan 05:17:22 05:25:17 49° 296° (WNW) 05:33:10 .
M-CUBED/EXP-1 PRIME 21 Jan 05:19:54 05:23:00 36° 104° (ESE) 05:26:00 437.505
DOVE 4 21 Jan 05:20:23 05:24:45 68° 101° (ESE) 05:29:21 437.250
ITAMSAT 1 21 Jan 05:20:55 05:25:40 37° 291° (WNW) 05:30:24 435.822/435.867
LilacSat-2 21 Jan 05:58:50 06:01:53 23° 95° (E) 06:04:56 437.200
XW-2C 21 Jan 06:00:50 06:03:51 22° 95° (E) 06:06:49 145.795 - 145.815
SO-50 21 Jan 06:22:23 06:26:42 49° 306° (NW) 06:31:06 436.795
FALCONSAT 3 21 Jan 06:24:30 06:28:02 47° 179° (S) 06:31:35 435.103
STRAND 1 21 Jan 06:34:07 06:38:36 32° 68° (ENE) 06:43:07 437.568
KAITUO 1B 21 Jan 06:34:28 06:37:58 40° 99° (E) 06:41:26 145.475/437.950
KKS-1 21 Jan 06:36:19 06:38:18 13° 268° (W) 06:40:17 437.445
XW-2F 21 Jan 06:36:27 06:40:09 60° 101° (E) 06:43:48 145.980 - 146.000
CUTE 1.7 + AOD 2 21 Jan 06:38:20 06:41:14 18° 93° (E) 06:44:06 437.475
NUDT-PHONESAT 21 Jan 06:44:58 06:48:34 53° 100° (E) 06:52:08 437.300
XW-2D 21 Jan 06:46:18 06:50:04 86° 283° (WNW) 06:53:48 145.860 - 145.880
STARS 21 Jan 06:49:55 06:53:19 22° 265° (W) 06:56:44 437.465
CUBEBUG 2 21 Jan 06:52:29 06:55:51 19° 92° (E) 06:59:13 437.445
CUTE-I 21 Jan 06:54:59 07:00:19 71° 103° (ESE) 07:05:38 437.470
M-CUBED/EXP-1 PRIME 21 Jan 06:55:59 06:57:02 11° 300° (WNW) 06:58:05 437.505
UWE-3 21 Jan 06:58:53 07:00:28 12° 89° (E) 07:02:02 435.000/436.395/437.385
HO-68 21 Jan 07:00:21 07:06:59 39° 98° (E) 07:13:34 435.675
DOVE 4 21 Jan 07:00:39 07:01:56 11° 296° (WNW) 07:03:14 437.250
XW-2B 21 Jan 07:04:00 07:07:40 52° 285° (WNW) 07:11:18 145.730 - 145.750
AO-7 21 Jan 07:15:16 07:16:00 10° 317° (NW) 07:16:44 .
AO-73 21 Jan 07:29:35 07:30:06 10° 89° (E) 07:30:37 145.935
LilacSat-2 21 Jan 07:33:08 07:36:01 21° 291° (WNW) 07:38:54 437.200
XW-2C 21 Jan 07:34:59 07:37:53 22° 291° (WNW) 07:40:47 145.795 - 145.815
FO-29 21 Jan 07:39:55 07:46:45 63° 73° (ENE) 07:52:47 435.910
AAUSAT CUBESAT 2 21 Jan 07:41:18 07:44:32 22° 95° (E) 07:47:45 437.432
RS-15 21 Jan 07:45:44 07:57:11 48° 109° (ESE) 08:08:31 29.354- 29.394
SEEDS 21 Jan 07:59:52 08:04:02 85° 285° (WNW) 08:08:10 437.485
Oscar 11 21 Jan 08:00:49 08:03:06 14° 91° (E) 08:05:22 .
FALCONSAT 3 21 Jan 08:03:29 08:06:49 32° 194° (SSW) 08:10:08 435.103
KAITUO 1B 21 Jan 08:10:01 08:11:32 12° 294° (WNW) 08:13:02 145.475/437.950
CUTE 1.7 + AOD 2 21 Jan 08:13:19 08:17:07 34° 289° (WNW) 08:20:55 437.475
STRAND 1 21 Jan 08:13:25 08:17:45 28° 264° (W) 08:22:06 437.568
TIGRISAT 21 Jan 08:26:15 08:28:37 14° 64° (ENE) 08:31:02 435.000
CUBEBUG 2 21 Jan 08:28:07 08:32:36 42° 288° (WNW) 08:37:03 437.445
UWE-3 21 Jan 08:32:40 08:37:20 66° 285° (WNW) 08:41:53 435.000/436.395/437.385
XW-2A 21 Jan 08:34:17 08:37:39 89° 97° (E) 08:40:58 145.665 - 145.685
CUTE-I 21 Jan 08:36:48 08:39:44 15° 299° (WNW) 08:42:40 437.470
UNISAT 6 21 Jan 08:40:25 08:43:50 22° 67° (ENE) 08:47:18 437.425
HO-68 21 Jan 08:48:08 08:54:37 39° 295° (WNW) 09:01:06 435.675
ZACube-1 21 Jan 08:55:41 09:00:14 71° 284° (WNW) 09:04:41 437.345
BEESAT 3 21 Jan 08:57:43 09:00:10 16° 110° (ESE) 09:02:38 437.485
YUBILEINY 21 Jan 09:00:35 09:06:04 18° 63° (ENE) 09:11:31 435.215
AO-73 21 Jan 09:02:16 09:06:47 69° 284° (WNW) 09:11:11 145.935
AAUSAT CUBESAT 2 21 Jan 09:16:29 09:19:56 26° 290° (WNW) 09:23:21 437.432
FO-29 21 Jan 09:27:09 09:32:01 20° 266° (W) 09:36:34 435.910
PCSat 21 Jan 09:30:26 09:35:14 34° 109° (ESE) 09:40:04 145.827
Oscar 11 21 Jan 09:35:19 09:39:28 46° 287° (WNW) 09:43:35 .
FALCONSAT 3 21 Jan 09:43:55 09:45:19 12° 208° (SSW) 09:46:41 435.103
BEESAT 2 21 Jan 09:46:59 09:49:03 14° 109° (ESE) 09:51:09 435.950
DELFI C3 21 Jan 09:49:12 09:52:56 41° 99° (E) 09:56:39 145.870
RS-15 21 Jan 09:57:30 10:09:31 55° 310° (NW) 10:21:24 29.354- 29.394
TIGRISAT 21 Jan 10:00:29 10:04:47 53° 260° (W) 10:09:14 435.000
UNISAT 6 21 Jan 10:16:21 10:20:19 32° 264° (W) 10:24:24 437.425
PRISM 21 Jan 10:20:22 10:24:21 59° 74° (ENE) 10:28:21 437.425
Max Valier Satellite 21 Jan 10:23:31 10:27:14 76° 103° (ESE) 10:30:53 145.860
O/OREOS (USA 219) 21 Jan 10:29:31 10:33:53 49° 65° (ENE) 10:38:13 437.305
BEESAT 3 21 Jan 10:33:34 10:37:21 41° 306° (NW) 10:41:09 437.485
POLYITAN 1 21 Jan 10:35:57 10:37:34 12° 63° (ENE) 10:39:09 437.675
EO-88 21 Jan 10:41:19 10:44:57 82° 103° (ESE) 10:48:33 145.990 - 145.960
AIST 2D 21 Jan 10:41:42 10:45:01 40° 74° (ENE) 10:48:20 435.315
NANOSAT C BR1 21 Jan 10:50:14 10:52:40 15° 65° (ENE) 10:55:07 145.865
YUBILEINY 21 Jan 10:55:21 11:04:08 90° 79° (E) 11:12:49 435.215
QB50P2 21 Jan 11:03:27 11:07:01 27° 69° (ENE) 11:10:36 145.880/145.840
PCSat 21 Jan 11:13:43 11:18:35 33° 307° (NW) 11:23:29 145.827
BEESAT 2 21 Jan 11:22:27 11:26:20 47° 305° (NW) 11:30:16 435.950
DELFI C3 21 Jan 11:25:16 11:27:16 14° 294° (WNW) 11:29:17 145.870
AO-85 21 Jan 11:29:01 11:32:04 22° 111° (ESE) 11:35:15 145.980
DUCHIFAT 1 21 Jan 11:32:00 11:35:51 37° 72° (ENE) 11:39:46 145.980
EO-79 21 Jan 11:33:33 11:37:39 52° 74° (ENE) 11:41:48 145.935-145.965
ESTCUBE 1 21 Jan 11:53:00 11:57:23 51° 100° (E) 12:01:44 437.505/2401.250
JUGNU 21 Jan 11:53:02 11:54:09 10° 178° (S) 11:55:15 437.505
LO-87 21 Jan 11:59:04 12:02:42 90° 303° (WNW) 12:06:20 145.935 - 145.965
Gurwin Techsat 1B 21 Jan 12:04:58 12:06:59 12° 59° (ENE) 12:09:01 435.225
POLYITAN 1 21 Jan 12:08:37 12:12:47 59° 260° (W) 12:17:01 437.675
O/OREOS (USA 219) 21 Jan 12:10:29 12:12:48 14° 261° (W) 12:15:07 437.305
Oscar 19 21 Jan 12:13:19 12:16:56 19° 64° (ENE) 12:20:33 437.125/150
RS-15 21 Jan 12:16:41 12:25:38 22° 340° (NNW) 12:34:24 29.354- 29.394
AIST 2D 21 Jan 12:17:45 12:18:21 10° 269° (W) 12:18:55 435.315
NANOSAT C BR1 21 Jan 12:23:57 12:27:58 44° 261° (W) 12:32:02 145.865
BUGSAT 1 21 Jan 12:31:28 12:35:13 37° 72° (ENE) 12:39:03 437.445
QB50P2 21 Jan 12:39:18 12:42:44 24° 265° (W) 12:46:10 145.880/145.840
YUBILEINY 21 Jan 12:54:42 12:59:36 17° 283° (WNW) 13:04:30 435.215
AO-85 21 Jan 13:08:42 13:12:15 30° 310° (NW) 13:16:02 145.980
DUCHIFAT 1 21 Jan 13:08:54 13:11:37 17° 267° (W) 13:14:22 145.980
EO-79 21 Jan 13:12:04 13:13:42 12° 269° (W) 13:15:20 145.935-145.965
SO-50 21 Jan 13:15:06 13:17:54 15° 42° (NE) 13:20:44 436.795
SPROUT 21 Jan 13:19:26 13:23:44 73° 284° (WNW) 13:28:01 437.525
VELOX 1 21 Jan 13:26:31 13:30:55 68° 101° (ESE) 13:35:18 145.980
ESTCUBE 1 21 Jan 13:31:14 13:33:43 15° 296° (WNW) 13:36:12 437.505/2401.250
Gurwin Techsat 1B 21 Jan 13:40:50 13:46:09 87° 256° (WSW) 13:51:30 435.225
DX 1 21 Jan 13:41:59 13:44:56 18° 94° (E) 13:47:53 434.975-435.025
AO-91 21 Jan 13:42:05 13:45:18 43° 261° (W) 13:48:37 145.960
Oscar 19 21 Jan 13:50:46 13:55:49 52° 260° (W) 14:00:54 437.125/150
BUGSAT 1 21 Jan 14:08:13 14:10:43 16° 267° (W) 14:13:13 437.445
AO-7 21 Jan 14:22:24 14:30:15 47° 63° (ENE) 14:38:07 .
RS-15 21 Jan 14:35:43 14:44:19 22° 17° (NNE) 14:52:36 29.354- 29.394
50 SAT 21 Jan 14:51:16 14:54:20 58° 285° (WNW) 14:57:23 437.505
SO-50 21 Jan 14:54:11 14:58:54 78° 241° (WSW) 15:03:40 436.795
ITAMSAT 1 21 Jan 14:58:38 15:03:18 36° 69° (ENE) 15:07:59 435.822/435.867
ITUPSAT 1 21 Jan 15:01:53 15:04:03 13° 91° (E) 15:06:13 437.325
UKube-1 21 Jan 15:03:44 15:08:04 90° 171° (S) 15:12:22 .
VELOX 1 21 Jan 15:05:25 15:06:46 11° 298° (WNW) 15:08:06 145.980
DX 1 21 Jan 15:17:13 15:21:13 37° 289° (WNW) 15:25:14 434.975-435.025
MOZHAYETS 4 21 Jan 15:25:00 15:29:25 43° 98° (E) 15:33:47
CUBESAT XI-V 21 Jan 15:32:00 15:33:37 12° 90° (E) 15:35:14 437.345
BEESAT 21 Jan 15:39:20 15:43:41 33° 98° (E) 15:47:58 436.000
SRMSAT 21 Jan 15:50:35 15:52:03 11° 183° (S) 15:53:30 437.500
M-CUBED/EXP-1 PRIME 21 Jan 16:03:15 16:07:25 46° 69° (ENE) 16:11:20 437.505
NO-84 21 Jan 16:14:07 16:16:24 18° 128° (SE) 16:18:35 435.350 FM
AO-7 21 Jan 16:15:26 16:23:02 39° 261° (W) 16:30:43 .
DOVE 4 21 Jan 16:24:53 16:29:06 57° 75° (ENE) 16:33:12 437.250
ITUPSAT 1 21 Jan 16:37:29 16:42:15 63° 286° (WNW) 16:46:59 437.325
ITAMSAT 1 21 Jan 16:38:31 16:42:47 26° 264° (W) 16:47:05 435.822/435.867
CUTE-I 21 Jan 16:39:17 16:41:40 13° 60° (ENE) 16:44:05 437.470
LilacSat-2 21 Jan 16:41:23 16:42:32 11° 65° (ENE) 16:43:41 437.200
XW-2C 21 Jan 16:43:06 16:43:51 10° 65° (ENE) 16:44:35 145.795 - 145.815
RS-15 21 Jan 16:49:02 17:00:29 53° 48° (NE) 17:11:18 29.354- 29.394
KKS-1 21 Jan 16:51:33 16:52:44 11° 91° (E) 16:53:54 437.445
MOZHAYETS 4 21 Jan 17:03:03 17:06:13 18° 294° (WNW) 17:09:22
CUBESAT XI-V 21 Jan 17:06:49 17:11:22 62° 286° (WNW) 17:15:54 437.345
KAITUO 1B 21 Jan 17:13:47 17:16:16 17° 68° (ENE) 17:18:45 145.475/437.950
XW-2F 21 Jan 17:16:07 17:19:14 24° 70° (ENE) 17:22:19 145.980 - 146.000
BEESAT 21 Jan 17:17:22 17:21:16 25° 293° (WNW) 17:25:08 436.000
NUDT-PHONESAT 21 Jan 17:23:01 17:25:49 20° 69° (ENE) 17:28:37 437.300
XW-2D 21 Jan 17:26:00 17:29:31 36° 73° (ENE) 17:33:02 145.860 - 145.880
HO-68 21 Jan 17:28:34 17:34:19 27° 61° (ENE) 17:40:03 435.675
CUTE 1.7 + AOD 2 21 Jan 17:31:09 17:32:49 12° 64° (ENE) 17:34:29 437.475
M-CUBED/EXP-1 PRIME 21 Jan 17:39:23 17:41:53 15° 261° (W) 17:44:19 437.505
XW-2B 21 Jan 17:43:21 17:47:06 57° 76° (ENE) 17:50:52 145.730 - 145.750
CUBEBUG 2 21 Jan 17:50:31 17:52:40 13° 63° (ENE) 17:54:51 437.445
NO-84 21 Jan 17:50:36 17:53:24 31° 321° (NW) 17:56:05 435.350 FM
DOVE 4 21 Jan 18:06:21 18:07:06 10° 269° (W) 18:07:51 437.250
LilacSat-2 21 Jan 18:12:33 18:16:19 51° 261° (W) 18:20:05 437.200
XW-2C 21 Jan 18:13:45 18:17:31 54° 260° (W) 18:21:17 145.795 - 145.815
CUTE-I 21 Jan 18:15:41 18:21:00 80° 257° (WSW) 18:26:20 437.470
PCSat 21 Jan 18:19:15 18:23:37 24° 49° (NE) 18:27:57 145.827
KKS-1 21 Jan 18:25:14 18:29:40 64° 286° (WNW) 18:34:04 437.445
AAUSAT CUBESAT 2 21 Jan 18:31:17 18:33:21 14° 65° (ENE) 18:35:24 437.432
STARS 21 Jan 18:38:50 18:43:15 69° 101° (ESE) 18:47:39 437.465
KAITUO 1B 21 Jan 18:46:40 18:49:59 29° 263° (W) 18:53:19 145.475/437.950
STRAND 1 21 Jan 18:47:40 18:49:22 12° 90° (E) 18:51:05 437.568
SEEDS 21 Jan 18:49:49 18:53:55 54° 75° (ENE) 18:58:02 437.485
XW-2F 21 Jan 18:50:19 18:53:14 21° 265° (W) 18:56:10 145.980 - 146.000
BEESAT 3 21 Jan 18:50:45 18:54:40 75° 58° (ENE) 18:58:30 437.485
NUDT-PHONESAT 21 Jan 18:56:26 18:59:29 24° 264° (W) 19:02:34 437.300
Oscar 11 21 Jan 18:56:32 18:57:04 10° 63° (ENE) 18:57:36 .
XW-2D 21 Jan 19:01:42 19:03:47 14° 267° (W) 19:05:52 145.860 - 145.880
RS-15 21 Jan 19:01:59 19:12:42 46° 251° (WSW) 19:22:56 29.354- 29.394
CUTE 1.7 + AOD 2 21 Jan 19:03:55 19:08:07 58° 260° (W) 19:12:20 437.475
XW-2A 21 Jan 19:04:14 19:06:57 22° 71° (ENE) 19:09:40 145.665 - 145.685
HO-68 21 Jan 19:14:33 19:21:33 58° 258° (WSW) 19:28:37 435.675
CUBEBUG 2 21 Jan 19:24:26 19:28:42 57° 260° (W) 19:33:10 437.445
UWE-3 21 Jan 19:27:48 19:32:13 85° 78° (ENE) 19:36:48 435.000/436.395/437.385
BEESAT 2 21 Jan 19:40:42 19:44:41 66° 57° (ENE) 19:48:36 435.950
ZACube-1 21 Jan 19:49:32 19:53:57 76° 77° (ENE) 19:58:30 437.345
nSIGHT-1 21 Jan 19:54:50 19:57:36 28° 134° (SE) 20:00:23 .
AO-73 21 Jan 19:55:45 20:00:11 78° 76° (ENE) 20:04:43 145.935
AO-85 21 Jan 19:59:44 20:03:34 22° 47° (NE) 20:07:33 145.980
PCSat 21 Jan 20:02:02 20:07:16 51° 248° (WSW) 20:12:29 145.827
AAUSAT CUBESAT 2 21 Jan 20:04:23 20:08:22 47° 261° (W) 20:12:22 437.432
ISS 21 Jan 20:11:31 20:14:22 28° 134° (SE) 20:17:14 437.550
STARS 21 Jan 20:17:36 20:18:59 11° 298° (WNW) 20:20:22 437.465
STRAND 1 21 Jan 20:23:55 20:29:04 76° 286° (WNW) 20:34:12 437.568
Oscar 11 21 Jan 20:28:13 20:32:33 73° 259° (WSW) 20:36:56 .
SEEDS 21 Jan 20:28:29 20:29:53 11° 269° (W) 20:31:18 437.485
DELFI C3 21 Jan 20:33:39 20:36:33 20° 69° (ENE) 20:39:28 145.870
FO-29 21 Jan 20:35:23 20:40:29 55° 101° (E) 20:45:41 435.910
XW-2A 21 Jan 20:37:11 20:39:33 18° 265° (W) 20:41:57 145.665 - 145.685
